| time (UTC) | temp C | wind direction | speed KPH | gust KPH | rain 1hr cm | rain 24hr cm | rain mn cm | humidity % | barometer mb |
| 20260901012055 | 21 | 0 | 0.0 | 0.0 | 0.00 | 0.53 | 0.53 | 80 | 1020.2 |
| 20260901011602 | 21 | 0 | 0.0 | 1.6 | 0.00 | 0.53 | 0.53 | 80 | 1020.3 |
| 20260901011054 | 21 | 0 | 0.0 | 1.6 | 0.00 | 0.53 | 0.53 | 79 | 1020.4 |
| 20260901010559 | 21 | 0 | 0.0 | 1.6 | 0.00 | 0.53 | 0.53 | 78 | 1020.5 |
| 20260901010101 | 21 | 0 | 0.0 | 0.0 | 0.00 | 0.53 | 0.53 | 78 | 1020.4 |
| 20260901005555 | 21 | 0 | 0.0 | 0.0 | 0.00 | 0.53 | 0.53 | 78 | 1020.3 |
| 20260901005055 | 21 | 0 | 0.0 | 0.0 | 0.00 | 0.53 | 0.53 | 77 | 1020.3 |
| 20260901004609 | 21 | 0 | 0.0 | 0.0 | 0.00 | 0.53 | 0.53 | 77 | 1020.3 |
| 20260901004051 | 20 | 0 | 0.0 | 0.0 | 0.00 | 0.53 | 0.53 | 76 | 1020.2 |
| 20260901003552 | 20 | 0 | 0.0 | 0.0 | 0.00 | 0.53 | 0.53 | 74 | 1020.2 |
| 20260901003101 | 20 | 0 | 0.0 | 0.0 | 0.00 | 0.53 | 0.53 | 76 | 1020.2 |
| 20260901002556 | 20 | 0 | 0.0 | 0.0 | 0.00 | 0.53 | 0.53 | 78 | 1020.0 |
| 20260901002054 | 20 | 0 | 0.0 | 0.0 | 0.00 | 0.53 | 0.53 | 78 | 1020.0 |
| 20260901001608 | 20 | 0 | 0.0 | 0.0 | 0.00 | 0.53 | 0.53 | 78 | 1020.0 |
| 20260901001052 | 20 | 0 | 0.0 | 0.0 | 0.00 | 0.53 | 0.53 | 79 | 1020.1 |
| 20260901000552 | 20 | 0 | 0.0 | 0.0 | 0.00 | 0.53 | 0.53 | 80 | 1020.1 |
| 20260901000111 | 20 | 0 | 0.0 | 1.6 | 0.00 | 0.53 | 0.53 | 82 | 1020.2 |
| 20260831235557 | 20 | 0 | 0.0 | 1.6 | 0.03 | 0.53 | 0.53 | 83 | 1020.3 |
| 20260831235055 | 20 | 0 | 0.0 | 1.6 | 0.03 | 0.53 | 0.53 | 84 | 1020.5 |
| 20260831234628 | 20 | 0 | 0.0 | 0.0 | 0.03 | 0.53 | 0.53 | 84 | 1020.5 |
| 20260831234052 | 20 | 0 | 0.0 | 0.0 | 0.03 | 0.53 | 0.53 | 85 | 1020.7 |
| 20260831233556 | 20 | 0 | 0.0 | 1.6 | 0.03 | 0.53 | 0.53 | 85 | 1020.7 |
| 20260831233120 | 20 | 0 | 0.0 | 4.8 | 0.03 | 0.53 | 0.53 | 86 | 1020.9 |
| 20260831232553 | 20 | 0 | 0.0 | 6.4 | 0.05 | 0.53 | 0.53 | 85 | 1020.9 |
| 20260831232054 | 20 | 0 | 0.0 | 6.4 | 0.05 | 0.53 | 0.53 | 85 | 1020.8 |
| 20260831231556 | 20 | 293 | 0.0 | 4.8 | 0.08 | 0.53 | 0.53 | 86 | 1020.9 |
| 20260831231052 | 20 | 0 | 0.0 | 3.2 | 0.08 | 0.53 | 0.53 | 85 | 1020.8 |
| 20260831230556 | 19 | 0 | 0.0 | 1.6 | 0.08 | 0.53 | 0.53 | 85 | 1020.7 |
| 20260831230107 | 19 | 0 | 0.0 | 6.4 | 0.08 | 0.53 | 0.53 | 83 | 1020.7 |
| 20260831225552 | 19 | 0 | 0.0 | 9.7 | 0.05 | 0.51 | 0.51 | 83 | 1020.6 |
| 20260831225051 | 19 | 307 | 0.0 | 9.7 | 0.05 | 0.51 | 0.51 | 83 | 1020.9 |
| 20260831224604 | 19 | 293 | 4.8 | 9.7 | 0.05 | 0.51 | 0.51 | 82 | 1021.1 |
| 20260831224058 | 19 | 307 | 4.8 | 12.9 | 0.05 | 0.51 | 0.51 | 80 | 1021.2 |
| 20260831223555 | 20 | 299 | 4.8 | 12.9 | 0.05 | 0.51 | 0.51 | 80 | 1021.4 |
| 20260831223108 | 20 | 293 | 8.0 | 17.7 | 0.05 | 0.51 | 0.51 | 78 | 1021.7 |
| 20260831222552 | 20 | 311 | 9.7 | 19.3 | 0.03 | 0.48 | 0.48 | 76 | 1021.9 |
| 20260831222054 | 20 | 302 | 11.3 | 24.1 | 0.03 | 0.48 | 0.48 | 73 | 1022.2 |
| 20260831221603 | 21 | 294 | 14.5 | 25.7 | 0.00 | 0.46 | 0.46 | 70 | 1022.4 |
| 20260831221053 | 21 | 281 | 16.1 | 32.2 | 0.00 | 0.46 | 0.46 | 68 | 1022.4 |
| 20260831220558 | 21 | 297 | 17.7 | 32.2 | 0.00 | 0.46 | 0.46 | 66 | 1022.5 |
| 20260831215554 | 21 | 311 | 17.7 | 32.2 | 0.00 | 0.46 | 0.46 | 65 | 1022.6 |
| 20260831215053 | 21 | 336 | 19.3 | 35.4 | 0.00 | 0.46 | 0.46 | 65 | 1022.7 |
| 20260831214608 | 21 | 274 | 24.1 | 38.6 | 0.00 | 0.46 | 0.46 | 64 | 1022.8 |
| 20260831214055 | 22 | 307 | 22.5 | 38.6 | 0.00 | 0.46 | 0.46 | 65 | 1022.9 |
| 20260831213558 | 22 | 258 | 20.9 | 38.6 | 0.00 | 0.46 | 0.46 | 65 | 1022.9 |
| 20260831213104 | 22 | 290 | 22.5 | 38.6 | 0.00 | 0.46 | 0.46 | 67 | 1022.9 |
| 20260831212553 | 22 | 318 | 19.3 | 37.0 | 0.00 | 0.46 | 0.46 | 66 | 1023.0 |
| 20260831212057 | 22 | 318 | 20.9 | 37.0 | 0.00 | 0.46 | 0.46 | 66 | 1023.1 |
| 20260831211606 | 22 | 274 | 25.7 | 37.0 | 0.00 | 0.46 | 0.46 | 66 | 1023.0 |
| 20260831211052 | 23 | 339 | 22.5 | 37.0 | 0.00 | 0.46 | 0.46 | 66 | 1023.2 |
| 20260831210554 | 23 | 294 | 17.7 | 37.0 | 0.00 | 0.46 | 0.46 | 68 | 1023.2 |
| 20260831210058 | 23 | 271 | 20.9 | 33.8 | 0.00 | 0.46 | 0.46 | 68 | 1023.1 |
| 20260831205556 | 23 | 290 | 19.3 | 29.0 | 0.00 | 0.46 | 0.46 | 67 | 1023.1 |
| 20260831205058 | 23 | 287 | 17.7 | 29.0 | 0.00 | 0.46 | 0.46 | 66 | 1023.1 |
| 20260831204629 | 23 | 281 | 12.9 | 27.4 | 0.00 | 0.46 | 0.46 | 68 | 1023.2 |
| 20260831204053 | 23 | 321 | 12.9 | 27.4 | 0.00 | 0.46 | 0.46 | 69 | 1023.1 |
| 20260831203555 | 23 | 245 | 11.3 | 27.4 | 0.00 | 0.46 | 0.46 | 69 | 1023.3 |
| 20260831203121 | 24 | 278 | 14.5 | 27.4 | 0.00 | 0.46 | 0.46 | 68 | 1023.4 |
| 20260831202554 | 25 | 288 | 11.3 | 20.9 | 0.00 | 0.46 | 0.46 | 64 | 1023.4 |
| 20260831202055 | 25 | 285 | 11.3 | 20.9 | 0.00 | 0.46 | 0.46 | 62 | 1023.4 |
| 20260831201604 | 25 | 283 | 9.7 | 19.3 | 0.00 | 0.46 | 0.46 | 62 | 1023.4 |
| 20260831201055 | 25 | 1 | 4.8 | 14.5 | 0.00 | 0.46 | 0.46 | 64 | 1023.1 |
| 20260831200556 | 24 | 316 | 6.4 | 14.5 | 0.00 | 0.46 | 0.46 | 65 | 1023.2 |
| 20260831200104 | 24 | 278 | 6.4 | 12.9 | 0.00 | 0.46 | 0.46 | 64 | 1023.2 |
| 20260831195555 | 24 | 351 | 4.8 | 9.7 | 0.00 | 0.46 | 0.46 | 66 | 1023.2 |
| 20260831195054 | 23 | 358 | 4.8 | 9.7 | 0.00 | 0.46 | 0.46 | 66 | 1023.2 |
| 20260831194606 | 23 | 331 | 3.2 | 11.3 | 0.00 | 0.46 | 0.46 | 66 | 1023.5 |
| 20260831194055 | 23 | 333 | 4.8 | 11.3 | 0.00 | 0.46 | 0.46 | 68 | 1023.6 |
| 20260831193555 | 23 | 304 | 6.4 | 11.3 | 0.00 | 0.46 | 0.46 | 69 | 1023.7 |
| 20260831193101 | 23 | 308 | 3.2 | 9.7 | 0.00 | 0.46 | 0.46 | 69 | 1023.7 |
| 20260831192554 | 23 | 328 | 1.6 | 8.0 | 0.00 | 0.46 | 0.46 | 69 | 1023.8 |
| 20260831192055 | 23 | 305 | 3.2 | 11.3 | 0.00 | 0.46 | 0.46 | 68 | 1023.7 |
| 20260831191600 | 23 | 340 | 3.2 | 17.7 | 0.00 | 0.46 | 0.46 | 69 | 1023.6 |
| 20260831191055 | 23 | 317 | 4.8 | 17.7 | 0.00 | 0.46 | 0.46 | 70 | 1023.5 |
| 20260831190553 | 23 | 327 | 4.8 | 17.7 | 0.00 | 0.46 | 0.46 | 71 | 1023.5 |
| 20260831190107 | 23 | 354 | 4.8 | 11.3 | 0.00 | 0.46 | 0.46 | 72 | 1023.5 |
| 20260831185555 | 23 | 359 | 6.4 | 12.9 | 0.00 | 0.46 | 0.46 | 71 | 1023.4 |
| 20260831185054 | 23 | 348 | 4.8 | 12.9 | 0.00 | 0.46 | 0.46 | 72 | 1023.4 |
| 20260831184601 | 23 | 355 | 4.8 | 12.9 | 0.00 | 0.46 | 0.46 | 75 | 1023.4 |
| 20260831184055 | 23 | 324 | 6.4 | 12.9 | 0.00 | 0.46 | 0.46 | 75 | 1023.5 |
| 20260831183554 | 22 | 1 | 6.4 | 11.3 | 0.00 | 0.46 | 0.46 | 75 | 1023.5 |
| 20260831183104 | 22 | 360 | 4.8 | 9.7 | 0.00 | 0.46 | 0.46 | 76 | 1023.5 |
| 20260831182554 | 22 | 352 | 4.8 | 9.7 | 0.00 | 0.46 | 0.46 | 74 | 1023.5 |
| 20260831182055 | 22 | 358 | 3.2 | 9.7 | 0.00 | 0.46 | 0.46 | 74 | 1023.5 |
| 20260831181559 | 22 | 345 | 3.2 | 9.7 | 0.00 | 0.46 | 0.46 | 75 | 1023.6 |
| 20260831181055 | 22 | 302 | 3.2 | 9.7 | 0.00 | 0.46 | 0.46 | 76 | 1023.6 |
| 20260831180555 | 22 | 300 | 3.2 | 9.7 | 0.00 | 0.46 | 0.46 | 78 | 1023.7 |
| 20260831180104 | 22 | 307 | 4.8 | 9.7 | 0.00 | 0.46 | 0.46 | 78 | 1023.8 |
| 20260831175555 | 22 | 324 | 3.2 | 8.0 | 0.00 | 0.46 | 0.46 | 80 | 1023.7 |
| 20260831175054 | 22 | 319 | 3.2 | 9.7 | 0.00 | 0.46 | 0.46 | 81 | 1023.7 |
| 20260831174610 | 21 | 317 | 3.2 | 9.7 | 0.00 | 0.46 | 0.46 | 81 | 1023.9 |
| 20260831174053 | 21 | 314 | 3.2 | 9.7 | 0.00 | 0.46 | 0.46 | 82 | 1024.0 |
| 20260831173555 | 21 | 338 | 3.2 | 9.7 | 0.00 | 0.46 | 0.46 | 82 | 1024.1 |
| 20260831173103 | 21 | 347 | 4.8 | 9.7 | 0.00 | 0.46 | 0.46 | 83 | 1024.3 |
| 20260831172553 | 21 | 342 | 1.6 | 8.0 | 0.00 | 0.46 | 0.46 | 83 | 1024.3 |
| 20260831172055 | 21 | 359 | 3.2 | 8.0 | 0.00 | 0.46 | 0.46 | 85 | 1024.2 |
| 20260831171603 | 21 | 1 | 0.0 | 6.4 | 0.00 | 0.46 | 0.46 | 85 | 1024.1 |
| 20260831171055 | 21 | 321 | 3.2 | 6.4 | 0.00 | 0.46 | 0.46 | 86 | 1024.0 |
| 20260831170555 | 21 | 298 | 1.6 | 6.4 | 0.00 | 0.46 | 0.46 | 87 | 1023.8 |
| 20260831170104 | 20 | 335 | 0.0 | 4.8 | 0.00 | 0.46 | 0.46 | 88 | 1023.8 |
| 20260831165554 | 20 | 335 | 0.0 | 4.8 | 0.00 | 0.46 | 0.46 | 88 | 1023.8 |
| 20260831165055 | 20 | 335 | 1.6 | 6.4 | 0.00 | 0.46 | 0.46 | 89 | 1023.7 |
| 20260831164606 | 20 | 335 | 1.6 | 6.4 | 0.00 | 0.46 | 0.46 | 89 | 1023.7 |
| 20260831164054 | 20 | 338 | 1.6 | 4.8 | 0.00 | 0.46 | 0.46 | 89 | 1023.5 |
| 20260831163555 | 20 | 341 | 0.0 | 4.8 | 0.00 | 0.46 | 0.46 | 90 | 1023.5 |
| 20260831163105 | 20 | 341 | 0.0 | 4.8 | 0.00 | 0.46 | 0.46 | 90 | 1023.2 |
| 20260831162555 | 20 | 0 | 0.0 | 0.0 | 0.00 | 0.46 | 0.46 | 91 | 1023.2 |
| 20260831162054 | 20 | 0 | 0.0 | 4.8 | 0.00 | 0.46 | 0.46 | 91 | 1023.0 |
| 20260831161610 | 20 | 0 | 0.0 | 4.8 | 0.03 | 0.46 | 0.46 | 90 | 1023.1 |
| 20260831161054 | 20 | 359 | 1.6 | 4.8 | 0.03 | 0.46 | 0.46 | 90 | 1023.2 |
| 20260831160551 | 20 | 359 | 0.0 | 6.4 | 0.05 | 0.46 | 0.46 | 91 | 1023.2 |
| 20260831160109 | 19 | 0 | 1.6 | 6.4 | 0.05 | 0.46 | 0.46 | 90 | 1023.2 |
| 20260831155555 | 19 | 359 | 1.6 | 4.8 | 0.08 | 0.46 | 0.46 | 90 | 1023.2 |
| 20260831155055 | 19 | 359 | 1.6 | 8.0 | 0.10 | 0.46 | 0.46 | 90 | 1023.1 |
| 20260831154632 | 19 | 359 | 3.2 | 8.0 | 0.13 | 0.46 | 0.46 | 90 | 1023.1 |
| 20260831154054 | 19 | 328 | 3.2 | 9.7 | 0.13 | 0.46 | 0.46 | 91 | 1022.9 |
| 20260831153553 | 19 | 353 | 4.8 | 9.7 | 0.13 | 0.46 | 0.46 | 91 | 1022.9 |
| 20260831153105 | 19 | 348 | 3.2 | 6.4 | 0.15 | 0.46 | 0.46 | 90 | 1022.8 |
| 20260831152553 | 19 | 321 | 3.2 | 8.0 | 0.15 | 0.46 | 0.46 | 90 | 1022.9 |
| 20260831152052 | 19 | 334 | 1.6 | 8.0 | 0.15 | 0.46 | 0.46 | 91 | 1023.0 |
| 20260831151609 | 19 | 352 | 3.2 | 6.4 | 0.13 | 0.43 | 0.43 | 90 | 1023.1 |
| 20260831151056 | 19 | 329 | 1.6 | 8.0 | 0.15 | 0.43 | 0.43 | 90 | 1023.4 |
| 20260831150556 | 19 | 313 | 3.2 | 8.0 | 0.15 | 0.41 | 0.41 | 90 | 1023.5 |
| 20260831150106 | 19 | 297 | 4.8 | 8.0 | 0.15 | 0.41 | 0.41 | 90 | 1023.6 |
| 20260831145556 | 19 | 314 | 0.0 | 3.2 | 0.15 | 0.38 | 0.38 | 90 | 1023.8 |
| 20260831145057 | 19 | 0 | 0.0 | 3.2 | 0.13 | 0.36 | 0.36 | 90 | 1024.0 |
| 20260831144603 | 19 | 314 | 0.0 | 6.4 | 0.10 | 0.33 | 0.33 | 90 | 1023.9 |
| 20260831144056 | 19 | 0 | 0.0 | 6.4 | 0.10 | 0.33 | 0.33 | 89 | 1023.8 |
| 20260831143556 | 19 | 0 | 1.6 | 6.4 | 0.10 | 0.33 | 0.33 | 89 | 1023.7 |
| 20260831143119 | 19 | 345 | 1.6 | 8.0 | 0.08 | 0.30 | 0.30 | 89 | 1023.5 |
| 20260831142555 | 19 | 348 | 3.2 | 8.0 | 0.08 | 0.30 | 0.30 | 89 | 1023.2 |
| 20260831142054 | 19 | 347 | 4.8 | 9.7 | 0.08 | 0.30 | 0.30 | 89 | 1023.4 |
| 20260831141610 | 19 | 353 | 3.2 | 16.1 | 0.08 | 0.30 | 0.30 | 89 | 1023.1 |
| 20260831141056 | 19 | 325 | 9.7 | 16.1 | 0.05 | 0.28 | 0.28 | 89 | 1022.8 |
| 20260831140559 | 19 | 311 | 6.4 | 11.3 | 0.03 | 0.25 | 0.25 | 90 | 1022.8 |
| 20260831140107 | 19 | 321 | 0.0 | 4.8 | 0.03 | 0.25 | 0.25 | 90 | 1022.9 |
| 20260831135555 | 19 | 0 | 0.0 | 4.8 | 0.00 | 0.23 | 0.23 | 90 | 1022.9 |
| 20260831135055 | 19 | 172 | 0.0 | 4.8 | 0.00 | 0.23 | 0.23 | 90 | 1022.9 |
| 20260831134605 | 19 | 0 | 0.0 | 1.6 | 0.00 | 0.23 | 0.23 | 90 | 1022.8 |
| 20260831134055 | 19 | 0 | 0.0 | 3.2 | 0.00 | 0.23 | 0.23 | 90 | 1022.8 |
| 20260831133556 | 18 | 0 | 0.0 | 9.7 | 0.00 | 0.23 | 0.23 | 90 | 1022.6 |
| 20260831133106 | 18 | 0 | 3.2 | 9.7 | 0.00 | 0.23 | 0.23 | 90 | 1022.4 |
| 20260831132554 | 18 | 172 | 0.0 | 4.8 | 0.00 | 0.23 | 0.23 | 90 | 1022.4 |
| 20260831132059 | 18 | 0 | 0.0 | 0.0 | 0.00 | 0.23 | 0.23 | 90 | 1022.1 |
| 20260831131622 | 18 | 0 | 0.0 | 0.0 | 0.00 | 0.23 | 0.23 | 90 | 1021.9 |
| 20260831131059 | 18 | 0 | 0.0 | 0.0 | 0.00 | 0.23 | 0.23 | 90 | 1021.9 |
| 20260831130555 | 18 | 0 | 0.0 | 3.2 | 0.00 | 0.23 | 0.23 | 90 | 1021.6 |
| 20260831130114 | 18 | 0 | 0.0 | 3.2 | 0.00 | 0.23 | 0.23 | 90 | 1021.5 |
| 20260831125555 | 18 | 172 | 0.0 | 3.2 | 0.00 | 0.23 | 0.23 | 90 | 1021.5 |
| 20260831125054 | 18 | 0 | 0.0 | 11.3 | 0.00 | 0.23 | 0.23 | 90 | 1021.5 |
| 20260831124607 | 18 | 172 | 3.2 | 11.3 | 0.00 | 0.23 | 0.23 | 90 | 1021.3 |
| 20260831124054 | 18 | 167 | 6.4 | 11.3 | 0.00 | 0.23 | 0.23 | 90 | 1021.1 |
| 20260831123556 | 18 | 168 | 4.8 | 11.3 | 0.00 | 0.23 | 0.23 | 90 | 1021.1 |
| 20260831123105 | 18 | 154 | 8.0 | 17.7 | 0.00 | 0.23 | 0.23 | 90 | 1021.0 |
| 20260831122556 | 18 | 160 | 3.2 | 17.7 | 0.00 | 0.23 | 0.23 | 90 | 1020.9 |
| 20260831122055 | 19 | 143 | 11.3 | 17.7 | 0.00 | 0.23 | 0.23 | 91 | 1020.9 |
| 20260831121612 | 18 | 359 | 3.2 | 8.0 | 0.00 | 0.23 | 0.23 | 90 | 1020.4 |
| 20260831121055 | 19 | 181 | 0.0 | 4.8 | 0.00 | 0.23 | 0.23 | 91 | 1020.0 |
| 20260831120555 | 19 | 0 | 0.0 | 4.8 | 0.00 | 0.23 | 0.23 | 91 | 1020.2 |
| 20260831120109 | 18 | 173 | 1.6 | 4.8 | 0.00 | 0.23 | 0.23 | 91 | 1020.2 |
| 20260831115554 | 18 | 0 | 0.0 | 0.0 | 0.00 | 0.23 | 0.23 | 90 | 1020.3 |
| 20260831115054 | 18 | 0 | 0.0 | 1.6 | 0.00 | 0.23 | 0.23 | 90 | 1020.4 |
| 20260831114603 | 18 | 0 | 0.0 | 1.6 | 0.00 | 0.23 | 0.23 | 90 | 1020.5 |
| 20260831114052 | 18 | 0 | 0.0 | 1.6 | 0.00 | 0.23 | 0.23 | 90 | 1020.5 |
| 20260831113552 | 18 | 0 | 0.0 | 1.6 | 0.03 | 0.23 | 0.23 | 90 | 1020.5 |
| 20260831113105 | 18 | 0 | 0.0 | 4.8 | 0.03 | 0.23 | 0.23 | 90 | 1020.5 |
| 20260831112556 | 18 | 0 | 0.0 | 6.4 | 0.03 | 0.23 | 0.23 | 90 | 1020.3 |
| 20260831112054 | 18 | 168 | 3.2 | 9.7 | 0.03 | 0.23 | 0.23 | 90 | 1020.7 |
| 20260831111608 | 18 | 168 | 4.8 | 9.7 | 0.03 | 0.23 | 0.23 | 90 | 1020.9 |
| 20260831111054 | 18 | 169 | 4.8 | 8.0 | 0.03 | 0.23 | 0.23 | 90 | 1020.9 |
| 20260831110559 | 18 | 175 | 4.8 | 11.3 | 0.03 | 0.23 | 0.23 | 90 | 1020.7 |
| 20260831110115 | 18 | 172 | 6.4 | 11.3 | 0.03 | 0.23 | 0.23 | 90 | 1020.9 |
| 20260831105555 | 18 | 167 | 4.8 | 9.7 | 0.03 | 0.23 | 0.23 | 90 | 1020.9 |
| 20260831105056 | 18 | 170 | 4.8 | 9.7 | 0.03 | 0.23 | 0.23 | 90 | 1020.9 |
| 20260831104600 | 18 | 172 | 4.8 | 9.7 | 0.05 | 0.23 | 0.23 | 90 | 1021.0 |
| 20260831104054 | 18 | 0 | 0.0 | 1.6 | 0.05 | 0.23 | 0.23 | 90 | 1021.0 |
| 20260831103556 | 18 | 0 | 0.0 | 3.2 | 0.03 | 0.20 | 0.20 | 89 | 1021.0 |
| 20260831103106 | 18 | 0 | 0.0 | 6.4 | 0.05 | 0.20 | 0.20 | 89 | 1021.2 |
| 20260831102558 | 18 | 74 | 1.6 | 6.4 | 0.05 | 0.20 | 0.20 | 89 | 1021.3 |
| 20260831102055 | 18 | 68 | 1.6 | 4.8 | 0.05 | 0.20 | 0.20 | 89 | 1021.5 |
| 20260831101608 | 18 | 0 | 0.0 | 8.0 | 0.05 | 0.20 | 0.20 | 88 | 1021.5 |
| 20260831101055 | 18 | 68 | 1.6 | 8.0 | 0.05 | 0.20 | 0.20 | 88 | 1021.5 |
| 20260831100556 | 18 | 68 | 3.2 | 8.0 | 0.05 | 0.20 | 0.20 | 88 | 1021.5 |
| 20260831100110 | 18 | 74 | 4.8 | 9.7 | 0.05 | 0.20 | 0.20 | 88 | 1021.6 |
| 20260831095554 | 18 | 86 | 4.8 | 12.9 | 0.05 | 0.20 | 0.20 | 88 | 1022.0 |
| 20260831095056 | 18 | 52 | 6.4 | 14.5 | 0.05 | 0.20 | 0.20 | 87 | 1022.0 |
| 20260831094602 | 18 | 71 | 8.0 | 14.5 | 0.03 | 0.18 | 0.18 | 86 | 1022.0 |
| 20260831094055 | 18 | 61 | 6.4 | 12.9 | 0.03 | 0.18 | 0.18 | 87 | 1022.1 |
| 20260831093551 | 18 | 46 | 6.4 | 16.1 | 0.03 | 0.18 | 0.18 | 87 | 1022.1 |
| 20260831093103 | 18 | 52 | 9.7 | 16.1 | 0.00 | 0.15 | 0.15 | 86 | 1022.1 |
| 20260831092554 | 18 | 65 | 8.0 | 14.5 | 0.00 | 0.15 | 0.15 | 86 | 1022.1 |
| 20260831092055 | 18 | 67 | 9.7 | 14.5 | 0.03 | 0.15 | 0.15 | 86 | 1022.1 |
| 20260831091608 | 18 | 69 | 4.8 | 9.7 | 0.10 | 0.15 | 0.15 | 86 | 1022.1 |
| 20260831091055 | 18 | 88 | 3.2 | 11.3 | 0.13 | 0.15 | 0.15 | 86 | 1022.1 |
| 20260831090553 | 18 | 92 | 4.8 | 11.3 | 0.15 | 0.15 | 0.15 | 86 | 1021.7 |
| 20260831085551 | 18 | 104 | 6.4 | 12.9 | 0.15 | 0.15 | 0.15 | 85 | 1021.4 |
| 20260831085051 | 18 | 179 | 1.6 | 17.7 | 0.15 | 0.15 | 0.15 | 85 | 1021.0 |
| 20260831084600 | 18 | 176 | 9.7 | 19.3 | 0.15 | 0.15 | 0.15 | 85 | 1021.0 |
| 20260831084054 | 18 | 174 | 12.9 | 19.3 | 0.15 | 0.15 | 0.15 | 84 | 1021.1 |
| 20260831083554 | 19 | 129 | 11.3 | 22.5 | 0.15 | 0.15 | 0.15 | 83 | 1021.0 |
| 20260831083106 | 19 | 156 | 9.7 | 27.4 | 0.15 | 0.15 | 0.15 | 83 | 1021.0 |
| 20260831082554 | 19 | 153 | 14.5 | 32.2 | 0.15 | 0.15 | 0.15 | 81 | 1021.1 |
| 20260831082055 | 20 | 163 | 22.5 | 33.8 | 0.13 | 0.13 | 0.13 | 79 | 1021.4 |
| 20260831081605 | 20 | 141 | 22.5 | 33.8 | 0.05 | 0.05 | 0.05 | 77 | 1021.3 |
| 20260831081055 | 21 | 140 | 24.1 | 32.2 | 0.03 | 0.03 | 0.03 | 74 | 1020.9 |
| 20260831080558 | 22 | 166 | 8.0 | 24.1 | 0.00 | 0.00 | 0.00 | 65 | 1020.5 |
| 20260831080104 | 23 | 186 | 3.2 | 9.7 | 0.00 | 0.00 | 0.00 | 58 | 1020.4 |
| 20260831075556 | 23 | 194 | 4.8 | 9.7 | 0.00 | 0.00 | 0.00 | 55 | 1020.6 |
| 20260831075051 | 24 | 198 | 4.8 | 9.7 | 0.00 | 0.00 | 0.00 | 54 | 1020.5 |
| 20260831074606 | 25 | 202 | 4.8 | 9.7 | 0.00 | 0.00 | 0.00 | 50 | 1020.4 |
| 20260831074054 | 25 | 202 | 4.8 | 20.9 | 0.00 | 0.00 | 0.00 | 48 | 1020.2 |
| 20260831073555 | 25 | 208 | 4.8 | 24.1 | 0.00 | 0.00 | 0.00 | 49 | 1020.2 |
| 20260831073112 | 25 | 190 | 3.2 | 24.1 | 0.00 | 0.00 | 0.00 | 52 | 1020.1 |
| 20260831072556 | 25 | 170 | 14.5 | 24.1 | 0.00 | 0.00 | 0.00 | 53 | 1020.2 |
| 20260831072055 | 25 | 122 | 6.4 | 12.9 | 0.00 | 0.00 | 0.00 | 56 | 1020.2 |
| 20260831071601 | 25 | 122 | 8.0 | 16.1 | 0.00 | 0.00 | 0.00 | 56 | 1020.2 |
| 20260831071058 | 25 | 141 | 9.7 | 16.1 | 0.00 | 0.00 | 0.00 | 53 | 1020.1 |
| 20260831070554 | 25 | 150 | 3.2 | 9.7 | 0.00 | 0.00 | 0.00 | 49 | 1020.1 |
| 20260831070110 | 25 | 268 | 1.6 | 9.7 | 0.00 | 0.00 | 0.00 | 47 | 1020.0 |
| 20260831065551 | 24 | 264 | 4.8 | 9.7 | 0.00 | 0.00 | 0.00 | 49 | 1020.1 |
| 20260831065054 | 24 | 321 | 3.2 | 9.7 | 0.00 | 0.00 | 0.00 | 53 | 1019.9 |
| 20260831064610 | 25 | 198 | 1.6 | 4.8 | 0.00 | 0.00 | 0.00 | 58 | 1019.8 |
| 20260831064052 | 25 | 0 | 0.0 | 1.6 | 0.00 | 0.00 | 0.00 | 57 | 1019.6 |
| 20260831063553 | 25 | 0 | 0.0 | 3.2 | 0.00 | 0.00 | 0.00 | 57 | 1019.8 |
| 20260831063109 | 25 | 198 | 0.0 | 3.2 | 0.00 | 0.00 | 0.00 | 55 | 1019.9 |
| 20260831062555 | 25 | 198 | 0.0 | 3.2 | 0.00 | 0.00 | 0.00 | 55 | 1019.9 |
| 20260831062057 | 25 | 0 | 0.0 | 12.9 | 0.00 | 0.00 | 0.00 | 55 | 1019.9 |
| 20260831061602 | 25 | 0 | 0.0 | 12.9 | 0.00 | 0.00 | 0.00 | 53 | 1020.0 |
| 20260831061054 | 25 | 243 | 4.8 | 12.9 | 0.00 | 0.00 | 0.00 | 52 | 1020.2 |
| 20260831060554 | 25 | 274 | 3.2 | 8.0 | 0.00 | 0.00 | 0.00 | 54 | 1020.1 |
| 20260831060107 | 25 | 303 | 3.2 | 8.0 | 0.00 | 0.00 | 0.00 | 57 | 1020.2 |
| 20260831055554 | 25 | 306 | 3.2 | 8.0 | 0.00 | 0.00 | 0.00 | 60 | 1020.1 |
| 20260831055054 | 25 | 302 | 3.2 | 11.3 | 0.00 | 0.00 | 0.00 | 61 | 1020.1 |
| 20260831054607 | 25 | 287 | 1.6 | 11.3 | 0.00 | 0.00 | 0.00 | 62 | 1020.1 |
| 20260831054051 | 25 | 293 | 0.0 | 11.3 | 0.00 | 0.00 | 0.00 | 62 | 1020.2 |
| 20260831053558 | 25 | 249 | 3.2 | 11.3 | 0.00 | 0.00 | 0.00 | 60 | 1020.3 |
| 20260831053105 | 26 | 243 | 3.2 | 8.0 | 0.00 | 0.00 | 0.00 | 58 | 1020.2 |
| 20260831052550 | 26 | 236 | 4.8 | 9.7 | 0.00 | 0.00 | 0.00 | 53 | 1020.2 |
| 20260831052050 | 27 | 238 | 3.2 | 9.7 | 0.00 | 0.00 | 0.00 | 49 | 1020.2 |
| 20260831051557 | 26 | 282 | 1.6 | 4.8 | 0.00 | 0.00 | 0.00 | 49 | 1020.2 |
| 20260831051053 | 26 | 263 | 0.0 | 4.8 | 0.00 | 0.00 | 0.00 | 51 | 1020.3 |
| 20260831050552 | 26 | 0 | 0.0 | 4.8 | 0.00 | 0.00 | 0.00 | 51 | 1020.2 |
| 20260831050106 | 26 | 263 | 3.2 | 6.4 | 0.00 | 0.00 | 0.00 | 50 | 1020.0 |
| 20260831045555 | 26 | 263 | 1.6 | 6.4 | 0.00 | 0.10 | 0.00 | 50 | 1020.1 |
| 20260831045055 | 26 | 264 | 1.6 | 4.8 | 0.00 | 0.10 | 0.00 | 50 | 1020.2 |
| 20260831044631 | 26 | 263 | 1.6 | 4.8 | 0.00 | 0.10 | 0.00 | 50 | 1020.0 |
| 20260831044057 | 26 | 264 | 0.0 | 3.2 | 0.00 | 0.10 | 0.00 | 50 | 1019.8 |
| 20260831043551 | 26 | 0 | 0.0 | 3.2 | 0.00 | 0.10 | 0.00 | 50 | 1019.8 |
| 20260831043108 | 26 | 263 | 0.0 | 3.2 | 0.00 | 0.10 | 0.00 | 50 | 1019.9 |
| 20260831042554 | 26 | 263 | 0.0 | 4.8 | 0.00 | 0.10 | 0.00 | 50 | 1019.9 |
| 20260831042051 | 26 | 263 | 1.6 | 4.8 | 0.00 | 0.10 | 0.00 | 50 | 1019.9 |
| 20260831041614 | 26 | 263 | 1.6 | 3.2 | 0.00 | 0.10 | 0.00 | 51 | 1019.9 |
| 20260831041058 | 25 | 263 | 1.6 | 3.2 | 0.00 | 0.10 | 0.00 | 51 | 1019.9 |
| 20260831040555 | 25 | 263 | 1.6 | 3.2 | 0.00 | 0.10 | 0.00 | 51 | 1019.8 |
| 20260831035554 | 25 | 0 | 0.0 | 0.0 | 0.00 | 0.10 | 0.00 | 53 | 1019.9 |
| 20260831035052 | 25 | 0 | 0.0 | 3.2 | 0.00 | 0.10 | 0.00 | 53 | 1019.8 |
| 20260831034607 | 25 | 0 | 0.0 | 4.8 | 0.00 | 0.10 | 0.00 | 53 | 1019.7 |
| 20260831034054 | 25 | 0 | 1.6 | 4.8 | 0.00 | 0.10 | 0.00 | 53 | 1019.6 |
| 20260831033554 | 25 | 263 | 0.0 | 3.2 | 0.00 | 0.10 | 0.00 | 53 | 1019.5 |
| 20260831033101 | 26 | 263 | 1.6 | 6.4 | 0.00 | 0.10 | 0.00 | 52 | 1019.4 |
| 20260831032555 | 26 | 263 | 1.6 | 6.4 | 0.00 | 0.10 | 0.00 | 52 | 1019.4 |
| 20260831032051 | 26 | 264 | 3.2 | 6.4 | 0.00 | 0.10 | 0.00 | 51 | 1019.4 |
| 20260831031608 | 26 | 264 | 3.2 | 6.4 | 0.00 | 0.10 | 0.00 | 50 | 1019.3 |
| 20260831031054 | 26 | 266 | 1.6 | 6.4 | 0.00 | 0.10 | 0.00 | 50 | 1019.1 |
| 20260831030554 | 25 | 267 | 3.2 | 6.4 | 0.00 | 0.10 | 0.00 | 50 | 1019.0 |
| 20260831025553 | 26 | 269 | 3.2 | 6.4 | 0.00 | 0.10 | 0.00 | 52 | 1018.8 |
| 20260831025054 | 26 | 271 | 3.2 | 4.8 | 0.00 | 0.10 | 0.00 | 52 | 1018.8 |
| 20260831024600 | 26 | 271 | 1.6 | 4.8 | 0.00 | 0.10 | 0.00 | 52 | 1018.8 |
| 20260831024052 | 26 | 274 | 1.6 | 4.8 | 0.00 | 0.10 | 0.00 | 51 | 1018.7 |
| 20260831023552 | 26 | 274 | 1.6 | 4.8 | 0.00 | 0.10 | 0.00 | 51 | 1018.6 |
| 20260831023105 | 26 | 278 | 3.2 | 4.8 | 0.00 | 0.10 | 0.00 | 49 | 1018.5 |
| 20260831022556 | 26 | 280 | 3.2 | 4.8 | 0.00 | 0.10 | 0.00 | 47 | 1018.4 |
| 20260831022057 | 27 | 0 | 1.6 | 4.8 | 0.00 | 0.10 | 0.00 | 45 | 1018.4 |
| 20260831021602 | 27 | 0 | 0.0 | 0.0 | 0.00 | 0.10 | 0.00 | 44 | 1018.4 |
| 20260831021056 | 27 | 0 | 0.0 | 1.6 | 0.00 | 0.10 | 0.00 | 43 | 1018.4 |
| 20260831020555 | 28 | 0 | 0.0 | 3.2 | 0.00 | 0.10 | 0.00 | 41 | 1018.3 |
| 20260831020105 | 28 | 0 | 0.0 | 3.2 | 0.00 | 0.10 | 0.00 | 40 | 1018.3 |
| 20260831015555 | 28 | 351 | 1.6 | 4.8 | 0.00 | 0.10 | 0.00 | 38 | 1018.3 |
| 20260831015054 | 29 | 351 | 0.0 | 4.8 | 0.00 | 0.10 | 0.00 | 37 | 1018.3 |
| 20260831014604 | 29 | 351 | 1.6 | 4.8 | 0.00 | 0.10 | 0.00 | 36 | 1018.2 |
| 20260831014056 | 29 | 0 | 0.0 | 3.2 | 0.00 | 0.10 | 0.00 | 36 | 1018.3 |
| 20260831013555 | 29 | 351 | 0.0 | 4.8 | 0.00 | 0.10 | 0.00 | 36 | 1018.3 |
| 20260831013109 | 30 | 351 | 1.6 | 8.0 | 0.00 | 0.10 | 0.00 | 36 | 1018.3 |
| 20260831012558 | 30 | 351 | 3.2 | 9.7 | 0.00 | 0.10 | 0.00 | 36 | 1018.3 |